This demonstration page uses our WeatherBlox Daily Observations layout. Learn more.

Left ArrowRight Arrow

34.02893, -84.19858

Hourly Observations for August 12, 2020

Temp ( °F °C ) Dew Point ( °F °C ) Humidity (%) Winds ( mph kmh ) Pressure ( in mb ) Visibility ( mi km ) Precip ( " mm )
12:53 am 00:53 Clear 77 25 73 22.8 88 88 SW 7 11 29.97 1015 10 16 0.00 0.00
1:53 am 01:53 Clear 75 23.9 73 22.8 94 94 SSW 5 7 29.96 1015 10 16 0.00 0.00
2:53 am 02:53 Clear 75 23.9 73 22.8 94 94 SW 3 6 29.96 1014 9 14 0.00 0.00
3:53 am 03:53 Clear 75 23.9 73 22.8 94 94 W 5 7 29.95 1014 10 16 0.00 0.00
4:53 am 04:53 Clear 75 23.9 73 22.8 94 94 WNW 3 6 29.94 1014 10 16 0.00 0.00
5:53 am 05:53 Clear 75 23.9 72 22.2 90 90 Calm 29.95 1014 10 16 0.00 0.00
6:53 am 06:53 Clear 73 22.8 72 22.2 96 96 Calm 29.96 1015 8 13 0.00 0.00
7:53 am 07:53 Sunny 76 24.4 73 22.8 91 91 WNW 3 6 29.98 1015 8 13 0.00 0.00
8:53 am 08:53 Sunny 79 26.1 73 22.8 82 82 NNW 5 7 30.00 1016 9 14 0.00 0.00
9:53 am 09:53 Sunny 83 28.3 74 23.3 74 74 NNE 3 6 29.99 1016 10 16 0.00 0.00
10:53 am 10:53 Sunny 87 30.6 75 23.9 67 67 Calm 30.00 1016 10 16 0.00 0.00
11:53 am 11:53 Sunny 89 31.7 73 22.8 59 59 W 3 6 29.99 1016 10 16 0.00 0.00
12:53 pm 12:53 Mostly Cloudy 90 32.2 72 22.2 56 56 VRB 3 6 29.97 1015 10 16 0.00 0.00
1:14 pm 13:14 Mostly Cloudy with Nearby Thunderstorms 89 31.7 70 21.1 53 53 NNW 5 7 29.97 1015 10 16 0.00 0.00
1:29 pm 13:29 Mostly Cloudy 89 31.7 70 21.1 53 53 Calm 29.96 1015 10 16 0.00 0.00
1:43 pm 13:43 Partly Cloudy with Nearby Thunderstorms 90 32.2 69 20.6 50 50 NW 6 9 29.95 1014 10 16 0.00 0.00
1:53 pm 13:53 Partly Cloudy with Nearby Thunderstorms 89 31.7 71 21.7 55 55 WSW 8 13 29.96 1015 10 16 0.00 0.00
2:28 pm 14:28 Partly Cloudy 84 28.9 69 20.6 61 61 W 9 15 29.95 1014 10 16 0.00 0.00
2:53 pm 14:53 Partly Cloudy 88 31.1 71 21.7 57 57 WNW 7 11 29.94 1014 10 16 0.00 0.00
3:53 pm 15:53 Sunny 84 28.9 71 21.7 65 65 WSW 15 24 29.93 1014 10 16 0.00 0.00
4:06 pm 16:06 Sunny 82 27.8 70 21.1 67 67 WSW 15 24 29.93 1013 10 16 0.00 0.00
4:53 pm 16:53 Sunny 83 28.3 70 21.1 65 65 WSW 8 13 29.93 1013 10 16 0.00 0.00
5:53 pm 17:53 Mostly Sunny 81 27.2 70 21.1 69 69 WSW 6 9 29.94 1014 10 16 0.00 0.00
6:53 pm 18:53 Sunny 80 26.7 71 21.7 74 74 SSW 5 7 29.94 1014 10 16 0.00 0.00
7:53 pm 19:53 Sunny 79 26.1 71 21.7 77 77 SW 6 9 29.95 1014 10 16 0.00 0.00
8:53 pm 20:53 Clear 78 25.6 70 21.1 76 76 SW 3 6 29.96 1014 10 16 0.00 0.00
9:53 pm 21:53 Clear 77 25 71 21.7 82 82 WSW 5 7 29.96 1015 10 16 0.00 0.00
10:53 pm 22:53 Clear 76 24.4 71 21.7 85 85 Calm 29.97 1015 10 16 0.00 0.00
11:53 pm 23:53 Clear 76 24.4 72 22.2 88 88 WSW 6 9 29.97 1015 10 16 0.00 0.00

Powered by AerisWeather